[[{"header":{"parameterUnit":"m.s-1","parameterCategory":1,"la1":30.2991,"la2":30.254,"lo1":-89.0895,"lo2":-89.0444,"dy":0.0017,"dx":0.0017,"nx":28,"ny":28,"refTime":"2024-08-03T03:00:00:Z","depth":0,"parameterNumber":2,"parameterNumberName":"U-component_of_WINDS"},"data":[0,0,0,0,0,0,0,0,0,0,0,0,0,0,0,0,0,0,0,0,0,0,0,0,0,0,0,0,0,0,0,0,0,0,0,0,0,0,0,0,0,0,0,0,0,0,0,0,0,0,0,0,0,0,0,0,0,0,2.2943,2.2943,0,2.2886,2.2886,2.2885,2.2782,2.278,2.2778,2.2776,2.2721,2.2722,2.2722,0,0,0,0,0,0,0,0,0,0,0,0,0,2.2965,2.2966,2.2943,2.2943,2.2942,2.2887,2.2886,2.2885,2.2782,2.278,2.2777,2.2775,2.2721,2.2721,2.2722,0,0,0,0,0,0,0,0,0,0,0,0,0,2.2937,2.2966,2.2943,2.2884,2.2878,2.2887,2.2886,2.2885,2.2783,2.278,2.2777,2.2774,2.2721,2.2721,2.2722,2.2785,0,0,2.2724,2.2724,0,0,0,0,0,0,0,0,2.2939,2.2936,2.2893,2.2888,2.2881,2.2838,2.2873,2.2852,2.2783,2.2819,2.2776,2.2772,2.2763,2.276,2.2756,2.2783,2.278,2.2724,2.2724,2.2724,2.2725,0,0,0,0,0,0,0,2.2941,2.2938,2.2921,2.2893,2.2886,2.2861,2.2853,2.2869,2.2808,2.2816,2.2808,2.2803,2.2759,2.2755,2.2754,2.278,2.2724,2.2724,2.2725,2.2725,2.2854,2.2857,0,0,0,0,0,0,2.2951,2.2941,2.2923,2.2919,2.2903,2.2863,2.2855,2.2855,2.2808,2.2798,2.2805,2.2798,2.2756,2.2753,2.2751,2.282,2.2724,2.2725,2.2725,2.2851,2.2855,2.2858,0,0,0,0,0,0,2.2952,2.2951,2.2925,2.2928,2.2923,2.2866,2.2867,2.2856,2.2852,2.28,2.2789,2.2812,2.2753,2.275,2.2777,2.2817,2.2725,2.2726,2.2848,2.2852,2.2857,2.2961,0,0,0,0,0,0,2.2953,2.2951,2.2974,2.2929,2.2923,2.2951,2.2869,2.2857,2.2853,2.2843,2.2804,2.2794,2.2751,2.2777,2.2778,2.2816,2.2726,2.2844,2.285,2.2855,2.2953,2.2968,2.2981,0,0,0,0,0,2.2954,2.3007,2.2976,2.2974,2.295,2.2954,2.295,2.2898,2.2856,2.2879,2.2846,2.2796,2.2813,2.278,2.278,2.282,2.2841,2.2848,2.2855,2.2947,2.2965,2.2981,0,0,0,0,0,0,2.306,2.3,2.2965,2.3004,2.2985,2.2936,2.2963,2.2919,2.2912,2.2903,2.2839,2.2831,2.2866,2.2846,2.281,2.2878,2.2819,2.2827,2.2889,2.2906,2.292,2.2923,2.2727,0,0,0,0,0,2.3087,2.3094,2.3042,2.3082,2.3074,2.3021,2.302,2.2982,2.2959,2.2951,2.2919,2.29,2.2901,2.2903,2.2901,2.2951,2.294,2.2978,2.2992,2.3004,2.301,2.3033,2.3049,2.2881,2.2881,2.2881,0,0,2.3145,2.3113,2.3121,2.3102,2.3082,2.3091,2.3014,2.3027,2.3033,2.2953,2.2975,2.2952,2.2926,2.2964,2.2979,2.2949,2.3055,2.3013,2.3022,2.3022,2.3042,2.3058,2.3072,2.2886,2.2885,2.2884,0,0,2.3253,2.3231,2.326,2.3242,2.3212,2.3176,2.3184,2.3142,2.3123,2.3144,2.3083,2.3091,2.3094,2.3078,2.307,2.3173,2.3126,2.3175,2.3246,2.327,2.3283,2.3294,2.3329,2.3342,2.3182,2.3182,2.3182,0,2.3328,2.3338,2.3281,2.3298,2.3291,2.3218,2.3247,2.3233,2.3205,2.3202,2.3168,2.317,2.3148,2.318,2.3205,2.3202,2.3208,2.3177,2.3285,2.3296,2.3306,2.3338,2.3352,2.3188,2.3187,2.3186,2.3186,0,2.3431,2.344,2.3467,2.344,2.3437,2.346,2.3407,2.3411,2.3373,2.3342,2.3364,2.3335,2.3325,2.3331,2.3295,2.3358,2.3339,2.3297,2.3236,2.3329,2.3358,2.337,2.3196,2.3194,2.3192,2.3191,0,0,2.3603,2.3544,2.3555,2.3541,2.3504,2.3509,2.353,2.3519,2.3523,2.3507,2.3521,2.3526,2.3486,2.3477,2.3439,2.346,2.3541,2.3414,2.3412,2.3437,2.3607,2.3638,2.3653,2.3511,2.3513,2.3515,2.3609,0,2.3701,2.373,2.368,2.3721,2.3728,2.3659,2.3676,2.3656,2.3627,2.3629,2.3597,2.36,2.3548,2.3542,2.356,2.3527,2.3574,2.352,2.3523,2.3524,2.3529,2.3669,2.3701,2.3791,2.362,2.3622,2.3623,0,2.3819,2.3807,2.3849,2.3808,2.3809,2.3825,2.3811,2.3814,2.3789,2.3767,2.3757,2.3712,2.3729,2.3672,2.3695,2.3659,2.3658,2.3643,2.3645,2.3641,2.3578,2.3667,2.3819,2.3831,2.3641,2.364,2.3639,0,2.3937,2.3932,2.3955,2.3947,2.39,2.3913,2.3895,2.3867,2.3863,2.3852,2.3849,2.384,2.3835,2.383,2.3783,2.3746,2.3811,2.3751,2.3793,2.3794,2.3807,2.3807,2.3959,2.3811,2.3811,2.3811,2.381,0,2.4051,2.4078,2.4007,2.4022,2.4051,2.3994,2.4024,2.3999,2.3975,2.3984,2.3926,2.3935,2.3874,2.3877,2.3842,2.3865,2.3864,2.3846,2.3835,2.3849,2.3851,2.3846,2.3837,2.3814,2.3813,2.3813,2.3812,0,2.4186,2.414,2.4161,2.4115,2.4104,2.4127,2.4088,2.41,2.4068,2.408,2.4079,2.4029,2.403,2.3983,2.3975,2.3951,2.3989,2.3969,2.3997,2.3989,2.4033,2.4028,2.4185,2.4201,2.4046,2.4048,2.4049,0,2.426,2.4279,2.4235,2.4236,2.422,2.4223,2.4219,2.4164,2.4162,2.4136,2.4151,2.4147,2.414,2.4144,2.4108,2.4101,2.4079,2.4134,2.4077,2.409,2.4076,2.4075,2.4076,2.4145,2.4147,2.4149,2.415,0,2.4396,2.4372,2.4367,2.4355,2.4352,2.434,2.4324,2.4329,2.4269,2.427,2.4269,2.4265,2.4255,2.4252,2.4238,2.422,2.4175,2.4169,2.4177,2.419,2.4205,2.4195,2.4027,2.4164,2.4163,2.4162,2.4161,2.4161,2.45,2.4514,2.4485,2.4482,2.4464,2.4451,2.4459,2.4428,2.4426,2.4413,2.4382,2.4386,2.4361,2.4338,2.4324,2.4327,2.4299,2.4313,2.4316,2.4319,2.4326,2.4207,2.4325,2.4324,2.4324,2.4324,2.4323,0,2.463,2.4608,2.4606,2.4586,2.4584,2.4542,2.4523,2.4524,2.4528,2.4508,2.4502,2.4502,2.4498,2.4461,2.4453,2.4463,2.4442,2.4462,2.4459,2.4456,2.4353,2.4345,2.4479,2.4479,2.4479,2.4479,2.4479,2.4479,2.4698,2.4717,2.469,2.4701,2.4679,2.4682,2.4674,2.4662,2.4646,2.4647,2.4643,2.4619,2.4592,2.4582,2.4577,2.4566,2.4565,2.4592,2.4574,2.4478,2.4463,2.4449,2.444,2.4593,2.4593,2.4676,2.4677,2.4678]},{"header":{"parameterUnit":"m.s-1","parameterCategory":1,"la1":30.2991,"la2":30.254,"lo1":-89.0895,"lo2":-89.0444,"dy":0.0017,"dx":0.0017,"nx":28,"ny":28,"refTime":"2024-08-03T03:00:00:Z","depth":0,"parameterNumber":3,"parameterNumberName":"V-component_of_WINDS"},"data":[0,0,0,0,0,0,0,0,0,0,0,0,0,0,0,0,0,0,0,0,0,0,0,0,0,0,0,0,0,0,0,0,0,0,0,0,0,0,0,0,0,0,0,0,0,0,0,0,0,0,0,0,0,0,0,0,0,0,3.7033,3.7035,0,3.7244,3.7246,3.7249,3.7284,3.7283,3.7281,3.7279,3.7491,3.7498,3.7505,0,0,0,0,0,0,0,0,0,0,0,0,0,3.6655,3.6662,3.7032,3.7035,3.7038,3.7243,3.7246,3.7249,3.7285,3.7283,3.728,3.7278,3.7488,3.7497,3.7506,0,0,0,0,0,0,0,0,0,0,0,0,0,3.6838,3.6664,3.7032,3.708,3.7087,3.7243,3.7246,3.725,3.7285,3.7283,3.728,3.7277,3.7486,3.7496,3.7507,3.7628,0,0,3.7541,3.7545,0,0,0,0,0,0,0,0,3.6828,3.6852,3.7071,3.7077,3.7085,3.7235,3.7191,3.7377,3.7286,3.721,3.7279,3.7276,3.7408,3.7425,3.747,3.7638,3.7647,3.7541,3.7548,3.7553,3.7556,0,0,0,0,0,0,0,3.6815,3.6843,3.7116,3.7074,3.7083,3.709,3.7113,3.7226,3.7321,3.7216,3.7219,3.7244,3.7411,3.746,3.7475,3.765,3.7541,3.7551,3.7558,3.7562,3.7927,3.793,0,0,0,0,0,0,3.6794,3.6832,3.7109,3.7122,3.6947,3.7099,3.7125,3.719,3.732,3.7337,3.7246,3.7245,3.7442,3.7463,3.7483,3.7633,3.7553,3.7563,3.7569,3.7923,3.7927,3.7931,0,0,0,0,0,0,3.6786,3.6819,3.7101,3.6978,3.7015,3.7108,3.7181,3.7195,3.7244,3.7343,3.7359,3.7279,3.7441,3.7468,3.7592,3.764,3.7568,3.7578,3.792,3.7925,3.7929,3.7933,0,0,0,0,0,0,3.6775,3.6815,3.6864,3.6979,3.7021,3.7208,3.7184,3.7201,3.7263,3.7264,3.7378,3.7394,3.7441,3.7575,3.7603,3.7654,3.7586,3.7916,3.7922,3.7927,3.7929,3.7937,3.7945,0,0,0,0,0,3.6761,3.6855,3.6866,3.6899,3.7084,3.721,3.7234,3.7288,3.7267,3.7315,3.7379,3.739,3.7631,3.7588,3.7619,3.7674,3.7913,3.792,3.7927,3.7926,3.7936,3.7944,0,0,0,0,0,0,3.6742,3.6872,3.6884,3.7019,3.7104,3.7216,3.7279,3.7297,3.7388,3.7384,3.7446,3.7471,3.7592,3.7646,3.7595,3.7798,3.777,3.7784,3.7758,3.7769,3.7776,3.776,3.7596,0,0,0,0,0,3.6753,3.6847,3.6955,3.7063,3.7105,3.7185,3.7242,3.7276,3.7365,3.7401,3.7473,3.7558,3.7653,3.7714,3.7806,3.7937,3.7962,3.799,3.7998,3.8004,3.8015,3.8087,3.81,3.7954,3.7954,3.7954,0,0,3.6778,3.686,3.6915,3.7061,3.7131,3.7225,3.7214,3.7314,3.7384,3.7415,3.7538,3.7593,3.7692,3.782,3.788,3.7868,3.8061,3.8013,3.8017,3.8025,3.8095,3.8109,3.8121,3.7958,3.7958,3.7957,0,0,3.687,3.6943,3.7041,3.7111,3.7217,3.7269,3.7292,3.7403,3.7441,3.7565,3.759,3.7673,3.7835,3.7904,3.7961,3.8079,3.8092,3.8107,3.8147,3.8217,3.8228,3.8239,3.828,3.8294,3.8118,3.8118,3.8118,0,3.6887,3.7031,3.7088,3.7188,3.725,3.7284,3.7383,3.7447,3.7577,3.7619,3.7605,3.7809,3.7878,3.8022,3.805,3.8095,3.8123,3.8094,3.8222,3.8233,3.8244,3.8284,3.8299,3.8119,3.8119,3.8118,3.8118,0,3.7046,3.7146,3.7212,3.7338,3.7408,3.7506,3.7576,3.764,3.7668,3.7721,3.7846,3.793,3.804,3.8076,3.8104,3.8224,3.8214,3.821,3.8183,3.8258,3.8297,3.8312,3.812,3.812,3.8119,3.8119,0,0,3.7132,3.7289,3.7312,3.7369,3.7488,3.7565,3.7664,3.7774,3.7827,3.7915,3.7998,3.8135,3.8132,3.8196,3.8232,3.8293,3.838,3.8282,3.8285,3.8296,3.8516,3.8517,3.8534,3.8389,3.8393,3.8395,3.8507,0,3.7238,3.7418,3.7472,3.7622,3.7714,3.7747,3.7833,3.7915,3.7967,3.8051,3.8108,3.8203,3.8193,3.8232,3.8294,3.8356,3.8424,3.8349,3.8466,3.847,3.844,3.8555,3.8557,3.8659,3.8523,3.8525,3.8527,0,3.7386,3.7478,3.7638,3.7745,3.7785,3.7862,3.7966,3.8047,3.8139,3.8172,3.8244,3.8274,3.8377,3.8345,3.8487,3.8434,3.8485,3.8523,3.8528,3.854,3.8503,3.8569,3.8692,3.8707,3.8552,3.855,3.8548,0,3.7431,3.7596,3.7712,3.7761,3.7888,3.7941,3.7997,3.8087,3.8148,3.8238,3.8279,3.8379,3.8434,3.851,3.8566,3.8537,3.8702,3.8675,3.8731,3.873,3.8764,3.8761,3.8897,3.8798,3.8798,3.8798,3.8797,0,3.7544,3.764,3.7735,3.7806,3.7915,3.7975,3.808,3.8136,3.8216,3.8298,3.8332,3.8408,3.8478,3.8562,3.8606,3.8716,3.8741,3.8769,3.878,3.8766,3.8763,3.88,3.8794,3.8802,3.8801,3.88,3.8799,0,3.7613,3.768,3.781,3.792,3.795,3.8025,3.8119,3.8189,3.8243,3.8346,3.8373,3.8457,3.8558,3.8622,3.875,3.8779,3.89,3.8908,3.8869,3.8874,3.8927,3.8921,3.9091,3.9116,3.9001,3.9002,3.9003,0,3.768,3.7755,3.7874,3.7932,3.7989,3.8082,3.8145,3.8207,3.8271,3.8382,3.8438,3.8542,3.8629,3.8789,3.8859,3.8957,3.8968,3.9021,3.8983,3.8966,3.8968,3.8962,3.897,3.9027,3.9027,3.9028,3.9029,0,3.7791,3.7821,3.7912,3.8015,3.8091,3.8174,3.8258,3.8303,3.8378,3.8449,3.8554,3.8621,3.8752,3.8854,3.8959,3.9014,3.9034,3.904,3.9059,3.9045,3.9019,3.9033,3.8886,3.9036,3.9035,3.9035,3.9034,3.9034,3.7861,3.7929,3.8024,3.8124,3.8193,3.827,3.8342,3.8404,3.8494,3.8607,3.8637,3.8746,3.8836,3.8978,3.9035,3.9121,3.9113,3.914,3.9146,3.9152,3.9152,3.9006,3.914,3.914,3.914,3.914,3.9139,0,3.7974,3.8036,3.8128,3.8244,3.8323,3.8336,3.8429,3.8493,3.859,3.8672,3.8757,3.8877,3.8976,3.9055,3.9156,3.9209,3.9221,3.9234,3.923,3.9242,3.9154,3.9128,3.9223,3.9223,3.9223,3.9223,3.9223,3.9223,3.8041,3.8157,3.8198,3.8348,3.8409,3.8518,3.857,3.864,3.8707,3.884,3.8923,3.8974,3.9055,3.9163,3.9254,3.9274,3.9309,3.9321,3.9343,3.9258,3.9249,3.924,3.9216,3.9328,3.9328,3.9424,3.9425,3.9426]}]]